STARLINK-5445, 54790

Orbit data source: Space-Track

STARLINK-5445, 54790 is a payload satellite owned by SpaceX/Seattle (US) in LEO that was launched on Sat, 17 Dec 2022 UTC via an FALCON 9 launch vehicle from the Air Force Eastern Test Range (AFETR). Payload-class satellites include a variety of spacecraft equipped with specific instruments for various scientific and technological missions. These include communications satellites like Starlink; space stations such as the ISS; scientific satellites like the Hubble; Earth observation satellites from companies like Planet Labs, Umbra, and HawkEye 360; GPS; miniature CubeSats for education and research; and military/defense satellites.

Loading next visibility...
Identifier
54790, 2022-175AJ
Orbit
LEO
Country
Flag of USUS
Related business
Manufacturer
SpaceX/Seattle
Mission
Operational Commercial Communications
Bus & Motor
STARLINK, Unknown motor
Mass
305 kg wet, ~290 kg dry
Launch date (UTC)
2022-12-17 (4 years ago)
Launch vehicle
FALCON 9
Launch site
Air Force Eastern Test Range (AFETR)
Object type
Payload
Rocket body
Debris
Shape & HBR
Box + 1 Pan, 10.1 m
Radar Cross Section
13.562 m², Large (>1 m²)

Expand to show TLE details & history
Last TLE update: 3 days ago

TLE from 3 days ago
0 STARLINK-5445
1 54790U 22175AJ  26170.70689074 -.00001777  00000-0 -93562-4 0  9992
2 54790  53.1593 290.8229 0001281  90.8750 269.2389 15.08841144195534
Epoch: 2026-06-19T16:57Z
TLE epoch observation values (Epoch: 2026-06-19T16:57:55.359Z)
Latitude
0.00002°
Longitude
128.41024°
Altitude
540.643 km
Speed
7.593 km/s
True Right ascension
19h 23m 17s
True Declination
0° 00' 00"
Sunlit
Object was in full shadow at epoch
Visualization orbit readout
Latitude
Unknown
Longitude
Unknown
Altitude
Unknown
Speed
Unknown
Apparent Right ascension
Unknown
Apparent Declination
Unknown
Sunlit
N/A
Visualization observer readout
Local Sidereal Time
21:52:33
Azimuth
Unknown
Elevation
Unknown
Doppler factor
Unknown
Orbital elements
Apogee altitude
540.88 km
Perigee altitude
539.108 km
Semi-major axis
6,918.131 km
Eccentricity
0.00013
Inclination
53.1593°
RAAN
290.8229°
Arg. of periapsis
90.875°
True anomaly
269.22422°
Mean anomaly
269.2389°
Eccentric anomaly
269.23156°
Mean motion
3.7719 °/min
Orbital period
95.44 mins
BSTAR
-0.000093562
Loading maneuver chart data...
Computing Atmospheric mass density...

Documentation

Showing up to 5 results
|